Location: DARK SKY Beskydy - Park tmavé oblohy, www.darkskybeskydy.cz
(49.4926°N, 18.5016°E)
Time: 14:42:17
(UTC+01:00)

Vanguard 1 - Pass Details

Date: 18 November 2025
Orbit: 650 x 3821 km, 34.2° (Epoch: 07 December)

Event Time Altitude Azimuth Distance (km) Brightness Sun altitude
Rises 21:31:13 0° 278° (W) 7,884 15.2 -51.6°
Reaches altitude 10° 21:37:35 10° 270° (W) 6,926 14.6 -52.3°
Enters shadow 21:54:55 30° 222° (SW) 4,946 13.4 -54.3°
